sat.trackr.live / text

‹ back to catalog

AE1C

NORAD 62649 · 2025-009AS

PAYLOAD ACTIVE UNKNOWN

§ Identity

Operator
Country
JPN
Launch date
2025-01-14
Launch site
AFWTR
Launch vehicle
Mass (kg)
RCS (m²)

External: N2YO · Heavens-Above · Gunter

§ Orbital elements

Epoch: 2026-05-25T04:39:42.255648Z

Period
93.26 min
Inclination
97.4027°
Eccentricity
0.0001729
Mean motion
15.44036375 rev/d
Perigee alt
433.0 km
Apogee alt
435.4 km
Semi-major
6,812.3 km
B*
7.3208e-4
RAAN
232.3329°
Arg perigee
75.0989°
Mean anomaly
285.0451°
Rev number
7,573

§ Raw data

AE1C1 62649U 25009AS  26145.19423907  .00033418  00000+0  73208-3 0  99972 62649  97.4027 232.3329 0001729  75.0989 285.0451 15.44036375 75734

JSON: /api/v1/satellites/62649 · /tle

For live sub-satellite position, see the globe view (requires WebGL).

§ Visibility from observer

Set your observer location to see the next 7 days of passes ≥ 10°. The values pass through the URL so the page stays shareable.

No JS? Fill the form by hand. The geolocation button needs JavaScript.